Weather in Goykalovo

Russia / Voronezh Oblast     50°40′42″N   39°16′23″E
temp.,
°C
wind,
m/s
gust,
m/s
humid.,
%
clouds,
%
prec.,
mm/h
press.,
hPa
HPBL,
m
26 february, fri
fri2600:00+1w51199100 0.3 1020283
03:00+2w51099100 0.7 1020264
06:00+2wnw48100100 0.1 1019148
09:00+2w47100100 0.1 1018146
12:00+4w511100100 0.0 1017214
15:00+4wsw71599100 0.0 1016417
18:00+4w71598100 0.1 1014421
21:00+3w61398100 0.2 1013346
27 february, sat
sat2700:00+2w61295100 0.0 1012449
03:00+1w51195100 0.0 1012420
06:00+1w51195100 0.0 1010430
09:00+1w61193100 0.0 1010545
12:00+2wnw71085100 0.0 1010747
15:00+1wnw6119299 0.1 1010673
18:00+1wnw61196100 0.1 1010480
21:00+1nw51097100 0.2 1012496
28 february, sun
sun2800:000wnw489793 0.1 1013343
03:000nw489796 0.1 1014418
06:00−2nne359399 0.3 1015280
09:00−2nnw578692 0.3 1016625
12:00−2nnw4679100 0.1 1017715
15:00−1nnw4775100 0.1 1018781
18:00−1nnw378596 0.0 1018538
21:00−2nnw269394 0.1 1020350
1 march, mon
mon100:00−2nnw249574 0.0 1021215
03:00−3n229663 0.0 102254
06:00−4nne239591 0.0 1024124
09:00−4nne358259 0.0 1026328
12:00−2n347142 0.0 1027627
15:000nnw346662 0.0 1028868
18:00−1nw367690 0.0 1028264
21:00−1wnw367887 0.0 1029499
2 march, tue
tue200:00−1w5978100 0.0 1028601
03:00−2w61184100 0.0 1026474
06:00−1w71390100 0.1 1023602
09:000w71289100 0.1 1021610
12:00+1wnw71286100 0.0 1020892
15:00+1wnw61288100 0.0 1018660
18:00+1nw61390100 0.0 1018684
21:00+1nw61391100 0.1 1019765